Flag for Mexico Weather past 2 weeks in Saltillo, Coahuila, Mexico

Now
72 °F

Passing clouds.


Feels Like: 69 °F
Forecast: 62 / 81 °F
Wind: No wind

Location: Monterrey / Gen Maria

Current Time: Apr 25, 2015 at 4:29:14 AM

Latest Report: Apr 25, 2015 at 3:44 AM


Visibility: 6 mi

Pressure: 29.72 "Hg

Humidity: 88%

Dew point: 68 °F

Location of SaltilloLocation

Historic Weather in Saltillo — Graph

°F

Saltillo temperature yesterday

Maximum temperature yesterday: 88 °F (at 3:48 PM)
Minimum temperature yesterday: 70 °F (at 2:40 AM)
Average temperature yesterday: 78 °F

Past Weeks' High & Low Weather Summary

 TemperatureHumidityPressure
High90 °F (Apr 18, 2:45 PM)100% (Apr 12, 9:59 PM)30.23 "Hg (Apr 12, 9:59 PM)
Low37 °F (Apr 22, 3:42 AM)29% (Apr 18, 3:45 PM)29.67 "Hg (Apr 22, 6:45 PM)
Average72 °F83%29.90 "Hg
* Reported Apr 10 2:40 AM — Apr 25 2:44 AM, Saltillo, Weather by CustomWeather, © 2015

Note: Actual official high and low records may vary slightly from our data, if they occured in-between our weather recording intervals... More about our weather records

Advertising

Saltillo weather history for previous 24 hours

 ConditionsComfort  
Time TempWeatherWind HumidityBarometerVisibility
2:44 AM
Sat, Apr 25
72 °FOvercast.5 mph88%29.75 "Hg5 mi
1:44 AM72 °FPassing clouds.6 mph88%29.76 "Hg6 mi
12:48 AM72 °FPassing clouds.5 mph88%29.74 "Hg6 mi
11:42 PM
Fri, Apr 24
73 °FPassing clouds.No wind78%29.76 "Hg7 mi
10:42 PM77 °FPassing clouds.9 mph89%29.75 "Hg4 mi
9:41 PM79 °FPassing clouds.5 mph89%29.68 "Hg4 mi
7:49 PM82 °FMostly cloudy.8 mph74%29.74 "Hg7 mi
6:49 PM86 °FPartly sunny.6 mph66%29.67 "Hg8 mi
5:50 PM88 °FBroken clouds.8 mph66%29.69 "Hg7 mi
3:48 PM88 °FScattered clouds.8 mph62%29.68 "Hg5 mi
2:48 PM86 °FScattered clouds.7 mph62%29.75 "Hg4 mi
12:40 PM82 °FScattered clouds.5 mph70%29.80 "Hg3 mi
11:48 AM79 °FScattered clouds.5 mph74%29.84 "Hg3 mi
9:48 AM73 °FFog.6 mph89%29.83 "Hg2 mi
8:47 AM72 °FFog.No wind94%29.85 "Hg2 mi
6:46 AM70 °FOvercast.6 mph100%29.85 "Hg4 mi
5:41 AM72 °FMostly cloudy.6 mph94%29.83 "Hg4 mi
4:51 AM72 °FMostly cloudy.6 mph88%29.84 "Hg6 mi
Weather by CustomWeather, © 2015

See weather overviewHow to use our weather pages